sat.trackr.live / text

‹ back to catalog

FLOCK 4G-20

NORAD 62636 · 2025-009AD

PAYLOAD INACTIVE UNKNOWN

§ Identity

Operator
Country
US
Launch date
2025-01-14
Launch site
AFWTR
Launch vehicle
Mass (kg)
RCS (m²)

Purposes: earth_obs

External: N2YO · Heavens-Above · Gunter

§ Orbital elements

Epoch: 2026-07-12T17:50:20.885856Z

Period
92.31 min
Inclination
97.3859°
Eccentricity
0.0006246
Mean motion
15.60039427 rev/d
Perigee alt
383.3 km
Apogee alt
391.8 km
Semi-major
6,765.7 km
B*
1.5966e-3
RAAN
279.0666°
Arg perigee
213.2741°
Mean anomaly
146.8124°
Rev number
8,309

§ Raw data

FLOCK 4G-201 62636U 25009AD  26193.74329729  .00131012  00000+0  15966-2 0  99992 62636  97.3859 279.0666 0006246 213.2741 146.8124 15.60039427 83093

JSON: /api/v1/satellites/62636 · /tle

For live sub-satellite position, see the globe view (requires WebGL).

§ Visibility from observer

Set your observer location to see the next 7 days of passes ≥ 10°. The values pass through the URL so the page stays shareable.

No JS? Fill the form by hand. The geolocation button needs JavaScript.